Location: Seattle
(47.6064°N, 122.3308°W)
Time: 01:42:04
(UTC-08:00)

Tiros 1 - Pass Details

Date: 27 November 2020
Orbit: 630 x 663 km, 48.4° (Epoch: 28 January)

Event Time Altitude Azimuth Distance (km) Brightness Sun altitude
Rises 22:56:23 0° 278° (W) 2,967 - -61.1°
Reaches altitude 10° 23:00:39 10° 241° (WSW) 2,041 - -61.4°
Maximum altitude 23:01:46 11° 228° (SW) 1,985 - -61.5°
Drops below altitude 10° 23:02:52 10° 214° (SSW) 2,032 - -61.6°
Sets 23:07:06 0° 177° (S) 2,925 - -61.9°
